Theta_e
327 326 326 324 324 323 322 322 322 322 322 322 322 321 321 321 321 321 322 323 324 325 326 325 325 323 318 311 311 319 324 325 318 314 311 309 304 304 300 300 302 299 300 301 303 302 301
328 327 327 325 324 324 323 323 322 321 322 322 321 321 320 320 321 321 321 322 323 324 325 324 324 322 315 305 318 318 316 317 314 312 310 309 305 305 302 300 299 301 301 301 302 302 302
329 328 327 327 325 324 323 323 322 322 321 321 321 320 320 320 321 321 321 321 322 324 323 323 324 318 311 310 319 315 313 312 313 312 310 310 308 305 304 301 303 301 296 299 300 300 299
325 329 328 327 326 325 323 323 322 322 321 320 320 320 320 320 320 321 321 321 322 323 322 323 324 317 307 315 319 316 314 311 312 312 311 311 310 307 304 303 300 296 296 292 299 300 298
323 324 325 327 327 325 324 323 322 322 321 319 319 319 319 319 319 320 320 321 320 323 322 322 316 313 306 316 312 316 314 310 310 310 309 310 310 303 302 295 293 295 290 293 295 299 297
322 322 323 324 326 326 325 324 323 322 320 319 318 318 319 319 319 319 320 320 321 322 319 317 315 306 307 305 310 313 312 311 308 307 305 305 301 296 296 293 288 291 291 294 293 296 296
321 321 322 322 321 323 325 324 323 322 321 319 318 318 319 319 319 320 318 317 312 309 312 307 307 307 306 306 311 309 310 308 307 304 297 300 294 292 295 297 297 296 294 292 295 296 294
317 318 319 321 321 321 320 322 324 324 322 320 318 318 319 319 320 320 317 311 311 310 303 311 310 310 308 307 301 306 308 302 301 296 299 295 291 298 301 300 297 295 293 292 296 296 293
315 316 317 318 320 320 320 320 320 323 323 320 319 318 319 319 319 318 313 312 315 313 303 303 310 309 307 304 302 302 304 302 298 296 297 294 297 300 298 296 295 294 292 292 293 294 292
313 314 315 315 316 317 319 318 318 318 320 320 319 318 318 318 314 314 310 316 319 314 295 295 303 308 306 305 300 306 306 302 298 296 297 296 300 296 295 294 295 291 296 296 294 290 285
311 312 313 314 314 315 315 317 316 316 317 318 319 318 318 318 314 310 313 317 318 313 281 299 301 310 306 302 301 299 303 300 295 295 297 294 294 293 293 294 297 293 295 293 292 289 287
309 310 312 313 314 314 313 314 316 316 316 316 318 318 318 316 315 316 318 318 314 293 281 296 299 298 298 301 297 298 297 300 300 296 296 295 296 296 296 295 295 296 293 291 290 289 281
307 308 310 311 312 313 313 313 313 313 315 315 316 317 316 318 309 318 318 311 290 284 296 292 294 297 297 296 294 295 293 291 291 288 289 292 293 295 296 291 294 293 290 283 280 279 280
306 307 308 309 310 312 312 312 312 312 312 313 315 315 316 317 318 317 313 299 282 291 292 298 297 297 294 296 294 293 291 289 293 293 291 287 286 293 295 295 292 290 291 284 277 279 280
305 306 306 307 308 310 311 311 311 311 312 312 313 313 313 316 319 315 304 288 288 293 297 295 296 292 292 294 293 291 290 291 294 294 290 290 290 295 295 296 296 290 287 294 285 276 277
306 305 305 305 307 308 309 310 311 311 311 311 308 308 308 318 318 310 299 290 291 298 300 298 291 295 290 292 290 290 290 295 295 296 298 295 289 292 290 294 293 291 293 284 284 274 275
306 306 305 305 305 306 307 308 309 310 310 311 306 301 310 318 315 303 292 292 295 301 301 296 294 293 294 293 291 289 292 295 298 296 298 296 292 286 289 287 289 288 286 288 289 285 278
305 305 306 305 305 304 305 306 307 309 310 308 303 294 311 316 300 299 294 297 299 299 302 300 300 297 295 296 293 291 291 296 300 299 293 296 293 283 285 291 292 293 290 290 285 282 284
305 305 304 305 305 304 303 304 305 307 308 305 296 299 309 312 293 295 297 297 299 297 298 298 298 299 300 296 292 294 295 299 299 297 294 296 289 282 285 286 289 287 289 292 292 286 285
302 304 304 304 304 304 303 303 303 306 308 304 296 291 298 301 300 295 294 293 294 300 298 300 299 300 297 295 298 293 294 295 298 298 299 299 291 288 286 288 289 284 286 289 289 284 283
301 301 303 304 304 304 303 303 304 304 307 303 295 292 296 290 292 294 294 294 292 292 298 299 296 297 296 292 294 294 296 292 293 296 296 296 289 290 292 293 292 287 286 287 286 288 285
298 301 303 302 303 304 304 303 304 305 306 299 292 291 295 293 295 294 293 291 289 293 295 294 294 297 297 294 295 292 296 295 292 291 292 294 288 290 288 290 291 289 290 287 288 289 289
299 297 299 300 301 302 303 304 304 305 305 296 298 296 293 290 291 291 291 292 291 294 296 298 297 296 295 297 301 301 299 299 296 291 289 289 287 285 284 287 288 284 289 291 291 290 289
297 298 298 300 299 299 301 303 304 305 304 300 298 296 288 285 288 289 292 293 291 293 292 296 299 296 299 297 296 293 290 291 294 294 293 287 286 287 284 286 279 287 291 293 292 293 293
297 297 297 298 299 299 299 300 303 303 304 300 300 295 288 284 287 289 290 292 294 294 292 294 295 296 298 293 286 284 283 285 286 285 288 292 287 285 283 284 286 288 283 286 287 289 294
296 296 296 297 298 299 299 300 300 303 303 301 299 300 291 285 284 290 289 291 290 290 288 288 287 289 294 288 284 281 279 283 280 280 283 285 289 286 282 281 280 279 281 286 290 283 289
296 296 296 296 297 298 299 299 299 300 302 300 297 300 293 285 289 290 287 288 291 291 287 285 285 286 287 287 284 283 283 285 280 277 277 279 281 281 283 282 283 281 280 284 280 281 281
295 295 295 295 296 297 298 299 299 299 299 300 296 300 293 286 289 289 291 288 287 287 287 284 285 284 283 283 284 284 284 283 282 283 279 280 279 279 282 280 279 280 280 283 283 281 284
295 295 295 295 296 296 297 298 299 299 297 300 292 298 297 289 288 290 291 291 292 291 287 285 285 285 287 285 284 284 280 281 282 278 281 281 284 283 284 283 280 280 281 284 284 283 282
Wind_Speed
12 12 13 14 10 10 11 10 9 8 7 6 5 6 6 7 7 7 8 9 10 11 12 14 14 13 6 4 1 4 3 2 4 2 4 2 4 2 4 2 1 4 3 1 4 3 3
13 14 15 13 14 13 12 10 10 10 8 7 7 7 6 6 7 8 8 8 10 11 13 13 12 14 4 5 3 5 5 2 4 4 2 3 5 6 5 3 1 5 4 5 6 5 3
16 16 15 15 13 13 13 13 12 10 9 9 8 8 7 6 7 8 8 9 9 10 11 10 10 6 4 5 0 5 4 2 2 4 1 3 5 2 5 2 4 2 4 7 8 6 3
13 17 17 16 15 14 12 14 13 12 11 9 9 8 8 7 7 6 8 8 9 10 10 9 9 5 6 2 3 2 4 4 2 2 3 3 2 2 3 2 3 4 4 3 3 11 4
8 11 12 17 16 13 12 15 15 14 12 11 10 9 8 8 7 6 7 9 10 10 8 9 5 3 5 1 3 6 5 5 5 4 3 1 2 1 2 3 4 6 5 8 4 8 6
8 6 10 10 12 12 15 15 15 14 13 12 11 10 9 8 7 6 7 7 9 8 6 5 4 4 6 3 4 4 1 6 3 6 4 3 3 3 3 5 6 7 6 7 6 8 7
12 11 9 10 8 9 16 16 16 15 14 14 13 12 10 8 7 5 6 5 3 4 5 9 8 3 3 4 1 4 4 5 5 4 6 6 4 9 13 12 11 9 7 8 5 4 6
13 13 12 9 8 5 4 8 17 16 16 16 15 13 12 9 6 4 4 4 3 2 8 14 14 9 5 5 4 6 2 8 6 7 8 3 10 12 9 9 6 10 10 10 8 8 3
16 13 13 10 9 8 7 6 6 13 19 17 16 15 13 11 8 3 7 6 3 5 6 8 14 9 8 9 7 14 10 5 6 8 11 10 4 6 13 5 5 9 8 7 8 5 4
14 16 13 12 10 10 8 8 9 9 12 16 17 18 15 11 5 7 8 12 5 3 6 9 9 9 11 9 8 7 16 6 6 13 9 10 13 4 6 8 8 9 7 11 7 4 5
13 14 16 11 10 9 8 9 9 9 10 16 19 20 20 20 5 8 5 9 6 2 7 2 8 5 8 13 12 1 2 2 9 9 8 6 8 11 9 7 9 6 4 2 1 6 5
16 15 14 16 11 9 9 9 9 8 9 9 15 20 22 14 6 4 6 8 4 5 16 4 6 7 9 11 4 4 3 2 2 4 6 6 2 4 5 6 0 8 5 2 1 1 7
17 17 17 14 16 11 9 9 9 9 9 10 8 16 19 11 12 9 12 7 6 9 7 9 7 9 9 8 5 6 10 10 11 9 12 7 9 3 4 5 4 5 6 2 3 2 9
18 17 15 15 15 15 9 9 9 9 9 8 10 6 16 12 8 14 9 10 9 16 23 7 6 9 10 10 7 8 11 10 15 10 4 12 6 18 9 13 8 10 10 7 8 5 4
17 18 18 15 15 15 12 8 8 7 9 9 8 2 4 11 12 11 9 14 14 12 16 6 7 6 9 5 5 8 11 12 13 19 13 8 9 8 9 4 9 6 10 9 3 2 2
21 18 18 18 14 14 13 11 8 7 7 9 4 3 5 10 12 10 14 16 13 14 6 22 21 12 14 14 10 12 14 8 9 20 12 4 3 1 3 6 3 5 5 4 2 3 7
23 22 18 18 16 13 14 11 11 8 6 6 3 3 4 16 10 9 14 12 17 13 19 13 19 18 13 11 13 10 9 5 17 14 22 6 3 1 6 9 14 5 5 5 5 5 5
23 23 20 19 17 15 13 13 13 12 7 6 3 6 3 12 14 4 16 27 16 15 14 14 11 18 25 20 15 16 16 9 14 16 19 11 3 6 8 3 3 7 9 10 6 7 8
23 23 22 19 19 16 15 15 15 14 6 1 3 4 4 9 11 13 8 20 24 15 19 13 16 12 10 16 12 21 14 9 10 17 18 13 6 1 4 3 3 6 9 18 14 3 20
24 23 22 22 21 19 15 16 17 15 11 3 2 4 4 5 10 9 15 17 19 16 20 24 16 17 6 13 17 5 15 4 13 15 12 13 5 11 19 6 8 8 12 19 19 12 5
20 23 23 20 21 20 16 16 17 16 14 5 5 6 4 6 10 15 17 3 15 13 20 10 14 24 21 12 19 23 14 3 5 5 6 13 14 9 20 16 4 5 12 20 25 28 18
15 17 21 16 15 18 19 19 18 17 16 5 4 4 3 5 12 12 13 14 18 14 16 20 22 22 26 25 23 19 18 18 8 5 6 2 6 10 23 11 17 18 11 15 25 25 29
15 12 17 13 11 14 16 20 18 16 15 4 3 2 1 3 5 14 15 14 12 13 13 26 27 21 22 32 23 19 6 7 7 13 12 8 7 6 16 9 13 11 34 24 22 25 23
14 17 13 20 13 13 16 15 21 18 17 5 2 2 3 11 7 9 11 16 19 17 8 7 20 17 20 6 5 5 6 4 7 13 12 13 14 8 9 6 12 11 8 25 28 28 24
17 16 18 17 19 15 14 15 16 21 19 8 3 4 4 4 7 9 11 11 10 12 12 13 3 2 7 6 3 2 1 2 3 1 10 15 13 7 8 12 10 12 6 9 11 22 22
19 18 19 20 19 17 15 14 16 18 20 10 6 4 3 2 9 7 6 11 12 11 3 4 2 3 4 3 4 5 6 4 6 3 3 1 12 10 4 6 10 2 4 4 7 14 9
18 19 20 19 20 19 18 16 19 17 17 11 4 9 3 4 5 5 6 6 1 5 2 3 4 3 2 6 7 7 5 3 8 9 7 5 3 14 13 8 5 4 5 3 7 8 3
19 20 19 20 20 21 21 19 16 12 22 12 5 8 5 3 3 5 4 5 2 2 5 4 4 0 3 4 6 5 5 7 4 5 8 10 10 5 5 5 9 4 3 9 3 5 1
20 20 21 20 20 21 23 22 20 16 12 21 4 5 3 3 1 1 3 2 2 3 4 3 1 3 5 4 3 3 3 2 5 5 1 5 6 7 7 4 2 2 2 1 3 1 3
Wind_Direction
237 232 228 188 217 237 248 243 239 246 247 248 254 272 291 305 312 317 322 328 331 333 333 333 331 332 322 253 93 134 156 144 231 254 262 266 286 337 255 48 100 234 150 106 85 111 279
237 230 232 224 193 213 227 233 235 237 241 236 250 256 268 285 299 308 316 323 328 331 333 330 330 322 257 260 131 124 107 138 273 244 177 270 359 11 297 332 258 17 352 243 162 203 193
229 232 232 228 217 209 216 223 226 222 228 237 238 257 259 268 285 301 311 317 321 325 327 326 333 313 266 266 46 129 166 70 8 317 256 49 337 280 10 223 78 335 284 228 224 205 255
2 266 234 230 224 213 213 225 221 221 213 232 240 241 262 267 278 295 305 310 311 312 314 317 316 290 268 15 22 188 163 123 147 113 20 30 288 15 337 91 218 239 203 253 313 159 157
329 326 316 241 227 221 217 226 224 220 214 216 226 239 247 264 273 288 299 304 294 295 289 296 282 243 258 213 199 176 199 149 112 98 48 145 263 282 140 223 264 198 257 220 169 174 130
311 349 13 327 226 240 227 224 225 221 215 211 216 221 236 249 265 281 289 276 289 301 243 247 261 312 178 179 117 151 205 145 145 142 125 187 205 205 206 193 214 218 212 245 242 202 186
339 307 305 315 345 316 224 225 225 218 219 209 210 211 217 229 248 267 296 252 242 202 236 205 181 243 121 72 148 196 191 150 151 209 189 205 204 209 210 213 243 285 298 295 283 133 180
348 345 344 309 302 287 335 287 237 233 227 213 204 204 203 205 224 228 272 248 77 327 293 227 255 246 135 193 137 178 213 177 184 199 207 102 234 240 233 246 243 236 261 261 284 137 184
343 338 337 338 313 287 285 282 319 254 226 213 204 198 193 187 192 185 233 222 50 339 259 242 208 204 173 167 210 178 181 202 190 201 200 202 181 221 231 241 237 247 237 249 242 157 222
325 333 337 336 337 338 293 288 295 321 279 223 205 197 180 176 160 206 225 235 282 345 273 241 198 226 158 158 231 146 194 169 190 208 210 234 241 200 208 211 190 247 229 236 262 313 249
316 320 325 326 338 344 340 310 288 292 309 249 208 198 180 177 168 181 195 161 171 243 277 244 137 356 147 176 132 56 25 88 189 187 165 210 179 166 198 191 187 214 51 18 228 255 302
308 307 309 324 315 324 333 338 332 298 294 310 236 201 186 199 251 213 126 143 148 193 239 172 123 148 145 223 76 98 127 30 332 230 239 224 352 203 196 58 197 124 82 81 51 209 256
296 299 301 306 313 304 315 326 336 337 331 285 289 234 192 182 209 218 131 131 163 202 291 199 157 160 197 172 132 162 175 182 180 177 212 194 222 177 146 100 16 168 131 276 292 205 236
284 285 292 295 302 304 286 306 323 334 347 333 281 319 214 206 199 154 162 167 211 214 215 81 126 162 185 148 176 190 169 197 232 239 155 194 216 178 178 204 162 185 184 162 229 213 265
264 275 279 286 287 297 298 290 307 322 335 343 309 216 238 206 178 166 189 200 201 205 190 195 129 180 197 175 145 175 204 215 195 205 194 193 220 110 153 179 149 180 213 227 359 59 358
256 251 265 271 275 288 293 291 288 304 324 340 312 209 219 170 175 189 206 203 239 225 304 207 208 182 179 172 178 192 185 209 221 190 211 244 206 327 85 80 321 181 156 105 191 222 245
261 254 244 255 265 272 284 299 305 283 299 337 260 245 222 170 174 206 214 219 233 222 222 238 240 223 200 170 184 193 226 248 192 174 192 184 183 153 114 203 175 143 202 217 170 179 215
262 261 257 239 245 258 270 280 292 293 303 272 250 237 225 159 211 197 224 217 221 223 226 253 241 253 232 233 193 202 211 216 177 160 191 185 164 176 200 172 243 214 189 185 184 228 235
279 261 262 245 238 233 255 268 274 278 241 277 250 260 225 181 230 216 236 237 234 216 222 235 242 234 239 236 230 206 213 212 174 171 170 167 195 153 312 91 23 210 204 205 219 81 229
280 291 265 259 247 239 234 251 257 251 233 203 252 253 194 215 248 262 233 231 223 220 234 228 230 246 236 244 235 239 213 213 181 180 181 143 176 206 231 218 145 191 206 209 202 227 179
296 270 270 263 260 251 237 243 253 249 227 204 202 235 227 201 224 236 231 261 230 227 219 212 234 229 222 231 236 242 227 105 14 125 163 164 226 217 241 247 210 191 211 206 208 221 208
284 305 265 241 271 263 245 227 239 243 231 221 225 229 187 279 244 220 227 238 255 256 229 217 230 225 226 219 213 222 225 216 190 161 161 340 241 238 256 237 248 253 231 213 223 229 238
265 285 306 264 247 282 268 242 237 240 222 199 188 145 226 239 251 233 222 216 217 224 245 237 219 226 228 227 231 237 247 223 186 161 175 163 184 166 247 186 230 248 235 229 228 224 218
268 269 258 282 244 259 277 282 240 233 218 241 192 148 169 251 233 242 250 214 221 220 214 307 235 227 238 68 56 56 54 79 181 192 185 182 193 198 251 146 216 234 178 210 218 232 225
274 269 273 251 262 250 257 268 301 246 232 222 191 208 152 244 237 256 264 271 237 228 224 223 216 95 107 68 75 178 117 101 180 230 183 187 187 204 220 222 277 285 182 152 175 245 220
268 271 270 273 268 248 256 249 265 288 244 227 221 171 167 208 224 228 246 229 244 236 205 182 69 335 120 154 163 217 206 144 198 145 11 294 197 206 156 220 225 291 315 335 96 271 209
260 267 267 269 270 268 254 258 249 264 279 236 228 181 155 231 209 191 218 221 196 200 170 120 165 136 52 178 201 211 209 184 173 179 167 151 188 212 224 234 272 206 244 279 125 249 294
268 269 265 263 270 268 265 249 254 225 275 259 225 181 178 197 206 186 214 195 158 222 204 127 114 249 124 213 201 183 191 204 166 163 172 164 169 188 203 230 242 154 19 163 251 343 328
266 265 269 268 261 263 260 258 249 230 234 276 193 172 135 194 264 172 255 275 286 152 133 222 1 163 174 177 202 147 165 180 160 202 50 191 185 177 191 203 167 86 174 18 360 132 324